FW9069 Weather Reports


time (UTC)temp
C
wind
direction
speed
KPH
gust
KPH
rain 1hr
cm
rain 24hr
cm
rain mn
cm
humidity
%
barometer
mb
20260903100331 12 155 8.0 27.4 0.00 1.37 0.00 97 1010.6
20260903094821 12 111 11.3 19.3 0.00 1.37 0.00 97 1010.4
20260903093332 12 143 9.7 22.5 0.00 1.37 0.00 97 1010.5
20260903091826 12 194 6.4 17.7 0.00 1.37 0.00 97 1010.6
20260903090334 12 132 4.8 16.1 0.00 1.37 0.00 97 1010.6
20260903084828 12 85 8.0 16.1 0.00 1.37 0.00 97 1010.7
20260903083339 12 161 6.4 20.9 0.00 1.37 0.00 97 1010.6
20260903081831 12 171 1.6 22.5 0.00 1.37 0.00 97 1010.8
20260903080321 12 168 6.4 16.1 0.00 1.37 0.00 97 1010.7
20260903074832 12 116 6.4 20.9 0.00 1.37 0.00 97 1010.7
20260903073322 12 143 6.4 17.7 0.00 1.37 1.37 97 1010.6
20260903071856 12 147 4.8 17.7 0.00 1.37 1.37 97 1010.6
20260903070322 12 148 6.4 14.5 0.00 1.37 1.37 97 1010.5
20260903064832 12 133 3.2 17.7 0.00 1.37 1.37 97 1010.6
20260903063318 12 175 4.8 16.1 0.03 1.37 1.37 97 1010.7
20260903061831 12 193 4.8 19.3 0.03 1.37 1.37 97 1010.7
20260903060322 12 138 4.8 12.9 0.08 1.37 1.37 97 1010.7
20260903054832 12 171 1.6 9.7 0.13 1.37 1.37 97 1010.7
20260903053324 12 135 1.6 14.5 0.13 1.35 1.35 97 1010.9
20260903051819 12 151 1.6 9.7 0.13 1.35 1.35 97 1010.7
20260903050326 12 180 1.6 9.7 0.08 1.30 1.30 97 1010.7
20260903044818 12 183 4.8 12.9 0.03 1.24 1.24 97 1010.6
20260903043327 12 126 8.0 16.1 0.00 1.22 1.22 97 1010.3
20260903041839 12 109 9.7 16.1 0.00 1.22 1.22 96 1010.0
20260903040329 12 163 1.6 4.8 0.00 1.22 1.22 96 1010.1
20260903034838 12 151 3.2 6.4 0.00 1.22 1.22 96 1010.0
20260903033326 12 134 8.0 14.5 0.00 1.22 1.22 96 1009.7
20260903031821 12 136 4.8 9.7 0.00 1.22 1.22 96 1009.7
20260903030334 12 172 1.6 6.4 0.00 1.22 1.22 96 1009.4
20260903024822 13 162 3.2 16.1 0.00 1.22 1.22 96 1009.2
20260903023329 13 183 4.8 12.9 0.00 1.22 1.22 97 1009.3
20260903021820 13 210 1.6 6.4 0.00 1.22 1.22 96 1009.1
20260903020353 13 170 1.6 4.8 0.00 1.22 1.22 97 1009.0
20260903014820 13 155 1.6 6.4 0.00 1.22 1.22 97 1009.0
20260903013349 13 166 3.2 9.7 0.00 1.22 1.22 97 1008.8
20260903011841 13 166 1.6 12.9 0.05 1.22 1.22 97 1008.8
20260903010330 13 175 4.8 16.1 0.08 1.22 1.22 97 1008.8
20260903004822 13 163 6.4 14.5 0.08 1.22 1.22 97 1008.6
20260903003351 13 189 8.0 16.1 0.08 1.22 1.22 97 1008.7
20260903001821 14 165 4.8 12.9 0.03 1.17 1.17 97 1008.5
20260903000333 14 180 4.8 16.1 0.00 1.14 1.14 97 1008.3
20260902234825 14 167 6.4 14.5 0.03 1.14 1.14 97 1008.3
20260902233332 14 189 8.0 16.1 0.15 1.14 1.14 97 1008.0
20260902231826 14 169 6.4 12.9 0.23 1.14 1.14 97 1008.1
20260902230322 14 170 4.8 17.7 0.30 1.14 1.14 97 1007.9
20260902224835 13 169 4.8 14.5 0.33 1.12 1.12 97 1007.8
20260902223329 13 175 9.7 20.9 0.25 0.99 0.99 96 1007.6
20260902221838 13 175 4.8 19.3 0.20 0.91 0.91 96 1007.5
20260902220327 13 175 11.3 24.1 0.18 0.84 0.84 96 1007.5
20260902214859 13 152 11.3 24.1 0.13 0.79 0.79 96 1007.5
20260902213350 13 119 4.8 19.3 0.13 0.74 0.74 96 1007.4
20260902211849 13 173 11.3 29.0 0.10 0.71 0.71 95 1007.3
20260902210320 13 120 14.5 27.4 0.05 0.66 0.66 95 1007.2
20260902204831 13 241 14.5 30.6 0.05 0.66 0.66 95 1007.2
20260902203319 13 112 9.7 37.0 0.00 0.61 0.61 95 1007.0
20260902201828 13 184 11.3 32.2 0.05 0.61 0.61 95 1006.9
20260902200319 13 154 6.4 27.4 0.10 0.61 0.61 95 1006.7
20260902194828 13 140 4.8 29.0 0.13 0.61 0.61 95 1006.8
20260902193342 13 113 12.9 25.7 0.15 0.61 0.61 95 1006.7
20260902191833 13 130 12.9 25.7 0.15 0.56 0.56 95 1006.9
20260902190323 13 113 11.3 24.1 0.25 0.51 0.51 95 1006.8
20260902184833 13 122 11.3 22.5 0.30 0.48 0.48 95 1006.9
20260902183328 13 121 8.0 29.0 0.30 0.46 0.46 94 1007.0
20260902181821 13 134 14.5 29.0 0.28 0.41 0.41 94 1007.3
20260902180329 13 156 4.8 17.7 0.18 0.25 0.25 94 1007.3
20260902174833 13 131 6.4 24.1 0.18 0.18 0.18 94 1007.3
20260902173321 13 165 4.8 17.7 0.15 0.15 0.15 94 1007.3
20260902171833 13 161 9.7 22.5 0.13 0.13 0.13 93 1007.7
20260902170321 13 165 8.0 27.4 0.08 0.08 0.08 92 1007.6
20260902164817 13 176 4.8 20.9 0.00 0.00 0.00 91 1007.7